World > North America > United States > North Dakota

Colgan, North Dakota Regional Weather

Lat: 48.95N, Lon: 103.63W
Wx Zone: NDZ001
Feedback

Colgan, ND Regional Weather

Expires:201910240500;;179600
ASUS43 KBIS 240402
RWRND 

NORTH DAKOTA REGIONAL WEATHER ROUNDUP
NATIONAL WEATHER SERVICE BISMARCK ND
1100 PM CDT WED OCT 23 2019

NOTE: "FAIR" INDICATES FEW OR NO CLOUDS BELOW 12,000 FEET WITH NO
SIGNIFICANT WEATHER AND/OR OBSTRUCTIONS TO VISIBILITY.



NDZ001>003-009>011-017-240500-
NORTHWEST NORTH DAKOTA
  
CITY           SKY/WX    TMP DP  RH WIND       PRES   REMARKS
WILLISTON      CLOUDY    36  31  82 W7        30.25S                  
MINOT          CLEAR     29  22  75 SW7       30.23R                  
MINOT AFB      CLEAR     24  21  87 W8        30.22R WCI  15          
$$
 

SKY/WX - Weather  TMP - Temperature  DP - Dew Point  RH - Relative Humidity
WIND - Wind Direction/Speed PRES - Barometric Pressure VSB - Visibility
WCI - Wind Chill Index E13G22 Wind - East Wind 13 mph/Gusts of 22 mph